Time,TemperatureF,DewpointF,PressureIn,WindDirection,WindDirectionDegrees,WindSpeedMPH,WindSpeedGustMPH,Humidity,HourlyPrecipIn,Conditions,Clouds,dailyrainin,SoftwareType,DateUTC
2013-09-22 00:13:00,61.5,48.0,29.93,ENE,61,3.0,5.0,61,0.00,,,0.00,weatherlink.com 1.10,2013-09-22 05:13:00,
2013-09-22 00:28:00,61.6,48.0,29.93,NE,49,2.0,4.0,61,0.00,,,0.00,weatherlink.com 1.10,2013-09-22 05:28:00,
2013-09-22 00:43:00,58.9,48.0,29.93,WSW,240,0.0,1.0,68,0.00,,,0.00,weatherlink.com 1.10,2013-09-22 05:43:00,
2013-09-22 00:58:00,57.6,49.0,29.93,WSW,240,0.0,0.0,74,0.00,,,0.00,weatherlink.com 1.10,2013-09-22 05:58:00,
2013-09-22 01:13:00,56.3,50.0,29.93,WSW,242,0.0,1.0,78,0.00,,,0.00,weatherlink.com 1.10,2013-09-22 06:13:00,
2013-09-22 01:28:00,55.7,49.0,29.93,WSW,242,0.0,0.0,77,0.00,,,0.00,weatherlink.com 1.10,2013-09-22 06:28:00,
2013-09-22 01:43:00,55.6,47.0,29.93,ENE,77,1.0,1.0,74,0.00,,,0.00,weatherlink.com 1.10,2013-09-22 06:43:00,
2013-09-22 01:58:00,57.6,47.0,29.94,NE,54,1.0,2.0,69,0.00,,,0.00,weatherlink.com 1.10,2013-09-22 06:58:00,
2013-09-22 02:13:00,58.7,48.0,29.94,ENE,75,2.0,4.0,67,0.00,,,0.00,weatherlink.com 1.10,2013-09-22 07:13:00,
2013-09-22 02:29:00,58.8,48.0,29.93,ENE,77,3.0,3.0,67,0.00,,,0.00,weatherlink.com 1.10,2013-09-22 07:29:00,
2013-09-22 02:44:00,58.7,48.0,29.93,ESE,110,2.0,4.0,67,0.00,,,0.00,weatherlink.com 1.10,2013-09-22 07:44:00,
2013-09-22 02:59:00,58.2,48.0,29.93,ENE,77,4.0,5.0,68,0.00,,,0.00,weatherlink.com 1.10,2013-09-22 07:59:00,
2013-09-22 03:14:00,57.2,48.0,29.93,East,79,3.0,4.0,71,0.00,,,0.00,weatherlink.com 1.10,2013-09-22 08:14:00,
2013-09-22 03:29:00,56.7,48.0,29.93,ENE,78,2.0,3.0,72,0.00,,,0.00,weatherlink.com 1.10,2013-09-22 08:29:00,
2013-09-22 03:44:00,54.0,49.0,29.94,WSW,255,0.0,2.0,82,0.00,,,0.00,weatherlink.com 1.10,2013-09-22 08:44:00,
2013-09-22 03:59:00,53.3,48.0,29.94,WSW,255,0.0,0.0,83,0.00,,,0.00,weatherlink.com 1.10,2013-09-22 08:59:00,
2013-09-22 04:14:00,53.1,48.0,29.94,North,356,0.0,1.0,82,0.00,,,0.00,weatherlink.com 1.10,2013-09-22 09:14:00,
2013-09-22 04:29:00,53.1,49.0,29.94,West,261,1.0,1.0,86,0.00,,,0.00,weatherlink.com 1.10,2013-09-22 09:29:00,
2013-09-22 04:44:00,52.6,48.0,29.94,WSW,249,0.0,1.0,85,0.00,,,0.00,weatherlink.com 1.10,2013-09-22 09:44:00,
2013-09-22 04:59:00,52.8,48.0,29.94,WSW,249,0.0,0.0,83,0.00,,,0.00,weatherlink.com 1.10,2013-09-22 09:59:00,
2013-09-22 05:14:00,52.6,50.0,29.95,WSW,249,1.0,1.0,89,0.00,,,0.00,weatherlink.com 1.10,2013-09-22 10:14:00,
2013-09-22 05:29:00,51.8,49.0,29.95,WSW,249,0.0,1.0,90,0.00,,,0.00,weatherlink.com 1.10,2013-09-22 10:29:00,
2013-09-22 05:44:00,51.0,47.0,29.95,WSW,249,0.0,0.0,86,0.00,,,0.00,weatherlink.com 1.10,2013-09-22 10:44:00,
2013-09-22 05:59:00,52.1,48.0,29.96,East,80,0.0,2.0,85,0.00,,,0.00,weatherlink.com 1.10,2013-09-22 10:59:00,
2013-09-22 06:14:00,53.0,48.0,29.96,ENE,78,2.0,3.0,83,0.00,,,0.00,weatherlink.com 1.10,2013-09-22 11:14:00,
2013-09-22 06:29:00,53.0,48.0,29.96,East,83,3.0,4.0,83,0.00,,,0.00,weatherlink.com 1.10,2013-09-22 11:29:00,
2013-09-22 06:44:00,52.8,48.0,29.97,East,86,1.0,3.0,84,0.00,,,0.00,weatherlink.com 1.10,2013-09-22 11:44:00,
2013-09-22 06:59:00,52.0,48.0,29.97,East,84,1.0,2.0,85,0.00,,,0.00,weatherlink.com 1.10,2013-09-22 11:59:00,
2013-09-22 07:14:00,50.9,48.0,29.97,East,88,2.0,3.0,89,0.00,,,0.00,weatherlink.com 1.10,2013-09-22 12:14:00,
2013-09-22 07:29:00,52.5,49.0,29.98,East,91,2.0,4.0,86,0.00,,,0.00,weatherlink.com 1.10,2013-09-22 12:29:00,
2013-09-22 07:44:00,53.0,49.0,29.98,ENE,78,2.0,4.0,86,0.00,,,0.00,weatherlink.com 1.10,2013-09-22 12:44:00,
2013-09-22 07:59:00,54.1,50.0,29.98,East,85,1.0,4.0,86,0.00,,,0.00,weatherlink.com 1.10,2013-09-22 12:59:00,
2013-09-22 08:14:00,55.5,51.0,29.99,East,79,4.0,4.0,84,0.00,,,0.00,weatherlink.com 1.10,2013-09-22 13:14:00,
2013-09-22 08:29:00,56.6,51.0,30.00,SE,125,1.0,4.0,81,0.00,,,0.00,weatherlink.com 1.10,2013-09-22 13:29:00,
2013-09-22 08:44:00,57.4,51.0,30.00,East,81,1.0,3.0,80,0.00,,,0.00,weatherlink.com 1.10,2013-09-22 13:44:00,
2013-09-22 08:59:00,58.6,52.0,30.00,ESE,109,0.0,3.0,79,0.00,,,0.00,weatherlink.com 1.10,2013-09-22 13:59:00,
2013-09-22 09:14:00,59.5,52.0,30.01,ESE,108,0.0,4.0,77,0.00,,,0.00,weatherlink.com 1.10,2013-09-22 14:14:00,
2013-09-22 09:29:00,61.5,54.0,30.00,SE,124,0.0,1.0,75,0.00,,,0.00,weatherlink.com 1.10,2013-09-22 14:29:00,
2013-09-22 09:44:00,62.2,53.0,30.01,East,85,1.0,1.0,72,0.00,,,0.00,weatherlink.com 1.10,2013-09-22 14:44:00,
2013-09-22 10:00:00,63.3,54.0,30.01,SE,135,0.0,2.0,72,0.00,,,0.00,weatherlink.com 1.10,2013-09-22 15:00:00,
2013-09-22 10:15:00,64.5,54.0,30.01,SSE,156,0.0,3.0,69,0.00,,,0.00,weatherlink.com 1.10,2013-09-22 15:15:00,
2013-09-22 10:30:00,65.6,54.0,30.02,East,81,2.0,2.0,67,0.00,,,0.00,weatherlink.com 1.10,2013-09-22 15:30:00,
2013-09-22 10:45:00,66.7,53.0,30.02,SSE,160,0.0,3.0,61,0.00,,,0.00,weatherlink.com 1.10,2013-09-22 15:45:00,
2013-09-22 11:00:00,67.6,53.0,30.01,NW,315,0.0,2.0,59,0.00,,,0.00,weatherlink.com 1.10,2013-09-22 16:00:00,
2013-09-22 11:15:00,68.6,54.0,30.01,ESE,111,1.0,3.0,59,0.00,,,0.00,weatherlink.com 1.10,2013-09-22 16:15:00,
2013-09-22 11:30:00,69.1,54.0,30.01,SE,124,2.0,4.0,60,0.00,,,0.00,weatherlink.com 1.10,2013-09-22 16:30:00,
2013-09-22 11:45:00,69.0,53.0,30.00,East,84,0.0,3.0,58,0.00,,,0.00,weatherlink.com 1.10,2013-09-22 16:45:00,
2013-09-22 12:00:00,67.8,54.0,30.00,East,85,1.0,6.0,62,0.00,,,0.00,weatherlink.com 1.10,2013-09-22 17:00:00,
2013-09-22 12:15:00,67.8,52.0,30.00,East,98,1.0,8.0,58,0.00,,,0.00,weatherlink.com 1.10,2013-09-22 17:15:00,
2013-09-22 12:30:00,68.7,52.0,29.99,SSE,157,0.0,9.0,55,0.00,,,0.00,weatherlink.com 1.10,2013-09-22 17:30:00,
2013-09-22 12:45:00,69.0,52.0,29.99,ESE,108,1.0,8.0,54,0.00,,,0.00,weatherlink.com 1.10,2013-09-22 17:45:00,
2013-09-22 13:00:00,68.8,53.0,29.98,ENE,66,6.0,7.0,57,0.00,,,0.00,weatherlink.com 1.10,2013-09-22 18:00:00,
2013-09-22 13:15:00,71.5,53.0,29.98,SSE,156,3.0,4.0,52,0.00,,,0.00,weatherlink.com 1.10,2013-09-22 18:15:00,
2013-09-22 13:30:00,71.8,54.0,29.97,East,98,3.0,5.0,53,0.00,,,0.00,weatherlink.com 1.10,2013-09-22 18:30:00,
2013-09-22 13:45:00,71.8,55.0,29.96,SSW,210,1.0,4.0,55,0.00,,,0.00,weatherlink.com 1.10,2013-09-22 18:45:00,
2013-09-22 14:00:00,73.7,55.0,29.95,ENE,75,1.0,5.0,53,0.00,,,0.00,weatherlink.com 1.10,2013-09-22 19:00:00,
2013-09-22 14:15:00,72.3,52.0,29.95,East,86,1.0,6.0,49,0.00,,,0.00,weatherlink.com 1.10,2013-09-22 19:15:00,
2013-09-22 14:30:00,72.3,51.0,29.95,West,267,1.0,5.0,48,0.00,,,0.00,weatherlink.com 1.10,2013-09-22 19:30:00,
2013-09-22 14:45:00,74.4,52.0,29.94,ESE,106,2.0,3.0,45,0.00,,,0.00,weatherlink.com 1.10,2013-09-22 19:45:00,
2013-09-22 15:00:00,75.2,52.0,29.94,SE,124,0.0,4.0,44,0.00,,,0.00,weatherlink.com 1.10,2013-09-22 20:00:00,
2013-09-22 15:15:00,71.4,50.0,29.93,SE,125,2.0,7.0,47,0.00,,,0.00,weatherlink.com 1.10,2013-09-22 20:15:00,
2013-09-22 15:30:00,75.5,53.0,29.93,ENE,78,3.0,3.0,45,0.00,,,0.00,weatherlink.com 1.10,2013-09-22 20:30:00,
2013-09-22 15:45:00,75.7,52.0,29.93,South,174,2.0,4.0,44,0.00,,,0.00,weatherlink.com 1.10,2013-09-22 20:45:00,
2013-09-22 16:00:00,75.6,53.0,29.93,ENE,70,2.0,5.0,45,0.00,,,0.00,weatherlink.com 1.10,2013-09-22 21:00:00,
2013-09-22 16:15:00,72.9,51.0,29.92,East,86,2.0,6.0,46,0.00,,,0.00,weatherlink.com 1.10,2013-09-22 21:15:00,
2013-09-22 16:30:00,73.9,52.0,29.92,ENE,78,2.0,4.0,46,0.00,,,0.00,weatherlink.com 1.10,2013-09-22 21:30:00,
2013-09-22 16:45:00,76.2,54.0,29.92,ENE,71,2.0,3.0,46,0.00,,,0.00,weatherlink.com 1.10,2013-09-22 21:45:00,
2013-09-22 17:02:00,74.1,52.0,29.92,ENE,74,2.0,6.0,47,0.00,,,0.00,weatherlink.com 1.10,2013-09-22 22:02:00,
2013-09-22 17:16:00,74.8,53.0,29.91,ENE,64,4.0,4.0,46,0.00,,,0.00,weatherlink.com 1.10,2013-09-22 22:16:00,
2013-09-22 17:31:00,72.6,53.0,29.92,ENE,68,4.0,4.0,51,0.00,,,0.00,weatherlink.com 1.10,2013-09-22 22:31:00,
2013-09-22 17:46:00,72.6,54.0,29.92,East,101,1.0,2.0,52,0.00,,,0.00,weatherlink.com 1.10,2013-09-22 22:46:00,
2013-09-22 18:01:00,71.7,53.0,29.92,East,101,1.0,4.0,52,0.00,,,0.00,weatherlink.com 1.10,2013-09-22 23:01:00,
2013-09-22 18:16:00,71.0,53.0,29.92,East,79,3.0,4.0,54,0.00,,,0.00,weatherlink.com 1.10,2013-09-22 23:16:00,
2013-09-22 18:31:00,70.2,53.0,29.92,East,86,2.0,3.0,55,0.00,,,0.00,weatherlink.com 1.10,2013-09-22 23:31:00,
2013-09-22 18:46:00,69.0,52.0,29.92,East,86,2.0,3.0,56,0.00,,,0.00,weatherlink.com 1.10,2013-09-22 23:46:00,
2013-09-22 19:01:00,66.8,52.0,29.91,ENE,78,0.0,2.0,59,0.00,,,0.00,weatherlink.com 1.10,2013-09-23 00:01:00,
2013-09-22 19:16:00,65.4,52.0,29.91,ENE,77,0.0,1.0,62,0.00,,,0.00,weatherlink.com 1.10,2013-09-23 00:16:00,
2013-09-22 19:31:00,63.9,52.0,29.92,SSE,158,0.0,1.0,66,0.00,,,0.00,weatherlink.com 1.10,2013-09-23 00:31:00,
2013-09-22 19:47:00,63.3,52.0,29.92,SSE,159,0.0,1.0,67,0.00,,,0.00,weatherlink.com 1.10,2013-09-23 00:47:00,
2013-09-22 20:01:00,63.5,52.0,29.92,SSE,159,0.0,1.0,66,0.00,,,0.00,weatherlink.com 1.10,2013-09-23 01:01:00,
2013-09-22 20:16:00,63.4,52.0,29.93,SSE,158,0.0,1.0,66,0.00,,,0.00,weatherlink.com 1.10,2013-09-23 01:16:00,
2013-09-22 20:31:00,63.2,52.0,29.93,SSE,149,0.0,1.0,67,0.00,,,0.00,weatherlink.com 1.10,2013-09-23 01:31:00,
2013-09-22 20:46:00,62.7,52.0,29.93,East,82,1.0,2.0,69,0.00,,,0.00,weatherlink.com 1.10,2013-09-23 01:46:00,
2013-09-22 21:01:00,62.8,52.0,29.94,ENE,77,1.0,1.0,68,0.00,,,0.00,weatherlink.com 1.10,2013-09-23 02:01:00,
2013-09-22 21:16:00,62.9,52.0,29.93,East,84,1.0,2.0,67,0.00,,,0.00,weatherlink.com 1.10,2013-09-23 02:16:00,
2013-09-22 21:31:00,62.5,52.0,29.94,ENE,77,0.0,1.0,68,0.00,,,0.00,weatherlink.com 1.10,2013-09-23 02:31:00,
2013-09-22 21:46:00,62.0,52.0,29.94,East,94,1.0,2.0,70,0.00,,,0.00,weatherlink.com 1.10,2013-09-23 02:46:00,
2013-09-22 22:01:00,61.3,52.0,29.94,ENE,68,3.0,4.0,72,0.00,,,0.00,weatherlink.com 1.10,2013-09-23 03:01:00,
2013-09-22 22:16:00,60.6,52.0,29.94,East,97,4.0,4.0,73,0.00,,,0.00,weatherlink.com 1.10,2013-09-23 03:16:00,
2013-09-22 22:31:00,59.9,52.0,29.94,East,86,2.0,3.0,74,0.00,,,0.00,weatherlink.com 1.10,2013-09-23 03:31:00,
2013-09-22 22:46:00,59.3,52.0,29.94,ENE,71,2.0,3.0,76,0.00,,,0.00,weatherlink.com 1.10,2013-09-23 03:46:00,
2013-09-22 23:01:00,59.1,52.0,29.95,East,80,3.0,4.0,76,0.00,,,0.00,weatherlink.com 1.10,2013-09-23 04:01:00,
2013-09-22 23:16:00,58.8,51.0,29.95,ENE,75,4.0,5.0,76,0.00,,,0.00,weatherlink.com 1.10,2013-09-23 04:16:00,
2013-09-22 23:31:00,58.0,51.0,29.95,East,82,2.0,3.0,77,0.00,,,0.00,weatherlink.com 1.10,2013-09-23 04:31:00,
2013-09-22 23:46:00,57.6,51.0,29.95,East,86,1.0,3.0,78,0.00,,,0.00,weatherlink.com 1.10,2013-09-23 04:46:00,